TimeEST,TemperatureF,Dew PointF,Humidity,Sea Level PressureIn,VisibilityMPH,Wind Direction,Wind SpeedMPH,Gust SpeedMPH,PrecipitationIn,Events,Conditions,WindDirDegrees,DateUTC
12:56 AM,22.1,20.1,92,29.99,6.0,Calm,Calm,-,N/A,,Clear,0,2013-02-13 05:56:00
1:56 AM,22.1,20.1,92,29.98,6.0,Calm,Calm,-,N/A,,Clear,0,2013-02-13 06:56:00
2:56 AM,20.1,18.1,92,29.97,4.0,NE,4.6,-,N/A,,Clear,50,2013-02-13 07:56:00
3:56 AM,19.0,18.1,96,29.96,5.0,Calm,Calm,-,N/A,,Clear,0,2013-02-13 08:56:00
4:56 AM,19.0,18.1,96,29.95,5.0,Calm,Calm,-,N/A,,Clear,0,2013-02-13 09:56:00
5:56 AM,18.1,17.1,96,29.94,4.0,Calm,Calm,-,N/A,,Clear,0,2013-02-13 10:56:00
6:56 AM,18.1,16.2,92,29.93,4.0,Calm,Calm,-,N/A,,Clear,0,2013-02-13 11:56:00
7:56 AM,20.1,18.1,92,29.91,4.0,Calm,Calm,-,N/A,,Clear,0,2013-02-13 12:56:00
8:56 AM,23.0,21.0,92,29.89,4.0,Calm,Calm,-,N/A,,Clear,0,2013-02-13 13:56:00
9:56 AM,27.1,23.0,84,29.87,7.0,NE,4.6,-,N/A,,Clear,40,2013-02-13 14:56:00
10:56 AM,31.1,25.2,79,29.88,9.0,NNE,4.6,-,N/A,,Partly Cloudy,30,2013-02-13 15:56:00
11:56 AM,32.9,25.2,73,29.87,9.0,Calm,Calm,-,N/A,,Scattered Clouds,0,2013-02-13 16:56:00
12:56 PM,34.0,25.2,70,29.83,10.0,Calm,Calm,-,N/A,,Scattered Clouds,0,2013-02-13 17:56:00
1:56 PM,34.0,25.2,70,29.80,10.0,Calm,Calm,-,N/A,,Clear,0,2013-02-13 18:56:00
2:56 PM,34.9,26.1,70,29.78,10.0,Calm,Calm,-,N/A,,Partly Cloudy,0,2013-02-13 19:56:00
3:56 PM,34.9,26.1,70,29.79,10.0,WNW,4.6,-,N/A,,Clear,300,2013-02-13 20:56:00
4:56 PM,34.0,25.2,70,29.80,10.0,NW,8.1,-,N/A,,Clear,310,2013-02-13 21:56:00
5:56 PM,32.0,23.0,69,29.82,10.0,WNW,4.6,-,N/A,,Clear,300,2013-02-13 22:56:00
6:56 PM,31.1,23.0,72,29.83,10.0,WNW,4.6,-,N/A,,Clear,300,2013-02-13 23:56:00
7:56 PM,29.1,23.0,78,29.86,10.0,NW,6.9,-,N/A,,Clear,320,2013-02-14 00:56:00
8:56 PM,27.1,23.0,84,29.89,10.0,WNW,3.5,-,N/A,,Clear,300,2013-02-14 01:56:00
9:56 PM,25.2,21.0,84,29.91,9.0,West,3.5,-,N/A,,Clear,270,2013-02-14 02:56:00
10:56 PM,25.2,21.0,84,29.92,8.0,West,3.5,-,N/A,,Clear,280,2013-02-14 03:56:00
11:56 PM,23.0,20.1,89,29.93,8.0,Calm,Calm,-,N/A,,Clear,0,2013-02-14 04:56:00